Location: Azul
(36.7830°S, 59.8500°W)
Time: 19:43:55
(UTC-03:00)

CAS-4A - Visible Passes

Search period start: 23 October 2021 00:00
Search period end: 02 November 2021 00:00
Orbit: 528 x 541 km, 43.0° (Epoch: 23 October)

Date Brightness Start Highest point End Pass type
(mag) Time Alt. Az. Time Alt. Az. Time Alt. Az.
23 Oct ? 03:39:24 47° ESE 03:39:24 47° ESE 03:42:24 10° ESE visible
23 Oct ? 05:14:56 10° WSW 05:18:44 35° S 05:22:32 10° ESE visible
24 Oct ? 03:28:41 39° SE 03:28:41 39° SE 03:31:24 10° ESE visible
24 Oct ? 05:04:02 10° WSW 05:07:48 34° S 05:11:35 10° ESE visible
25 Oct ? 03:17:58 32° SE 03:17:58 32° SE 03:20:22 10° ESE visible
25 Oct ? 04:53:15 11° WSW 04:56:53 33° S 05:00:38 10° ESE visible
26 Oct ? 03:07:15 27° SE 03:07:15 27° SE 03:09:22 10° ESE visible
26 Oct ? 04:42:32 12° WSW 04:45:58 33° S 04:49:43 10° ESE visible
27 Oct ? 02:56:32 23° SE 02:56:32 23° SE 02:58:20 10° ESE visible
27 Oct ? 04:31:49 13° WSW 04:35:03 34° S 04:38:48 10° ESE visible
28 Oct ? 02:45:51 20° SE 02:45:51 20° SE 02:47:19 10° ESE visible
28 Oct ? 04:21:08 15° SW 04:24:07 35° S 04:27:53 10° ESE visible
29 Oct ? 02:35:13 17° SE 02:35:13 17° SE 02:36:20 10° ESE visible
29 Oct ? 04:10:30 17° SW 04:13:10 37° S 04:16:59 10° ESE visible
30 Oct ? 02:24:39 14° SE 02:24:39 14° SE 02:25:20 10° ESE visible
30 Oct ? 03:59:57 21° SW 04:02:13 39° SSE 04:06:06 10° E visible
31 Oct ? 02:14:12 11° ESE 02:14:12 11° ESE 02:14:22 10° ESE visible
31 Oct ? 03:49:31 27° SW 03:51:15 43° SSE 03:55:11 10° E visible
01 Nov ? 03:39:17 39° SSW 03:40:17 49° SSE 03:44:16 10° E visible
01 Nov ? 05:16:28 10° WSW 05:20:24 45° NNW 05:24:18 10° NE visible
